Fort Leonard Wood, MO

4:01 AM CDT on October 22, 2019 (GMT -0500)
Waynesville Regional At Forney Field

Weather History for KTBN - May, 2019

Change the Weather History Date:

Saturday, May 11, 2019

  Actual Average Record
Temperature  
Mean Temperature 48 °F -  
Max Temperature 52 °F 73 °F 91 °F (2005)
Min Temperature 46 °F 55 °F 44 °F (2008)
Degree Days  
Heating Degree Days 16    
Moisture  
Dew Point 46 °F    
Average Humidity 92    
Maximum Humidity 100    
Minimum Humidity 81    
Precipitation  
Precipitation 0.79 in - - ()
Sea Level Pressure  
Sea Level Pressure 29.96 in    
Wind  
Wind Speed 6 mph (NE)    
Max Wind Speed 10 mph    
Max Gust Speed -    
Visibility 8 miles    
Events Rain    
Averages and records for this station are not official NWS values.
T = Trace of Precipitation, MM = Missing Value Source: NWS Daily Summary

Daily Weather History Graph

Daily Weather History Graph

Search for Another Location

Airport or City:

Astronomy

May. 11, 2019 Rise Set
Actual Time 6:02 AM CDT 8:07 PM CDT
Civil Twilight 5:33 AM CDT 8:36 PM CDT
Nautical Twilight 4:58 AM CDT 9:12 PM CDT
Astronomical Twilight 4:19 AM CDT 9:51 PM CDT
Moon 12:11 PM CDT (5/11) 1:48 AM CDT (5/11)
Length of Visible Light 15h 03m
Length of Day
14h 05m
Waxing Crescent, 46% of the Moon is Illuminated
May 11
Waxing Crescent
May 11
First Quarter
May 18
Full
May 26
Last Quarter
Jun 3
New

Hourly Weather History & Observations

Time (CDT) Temp. Windchill Dew Point Humidity Pressure Visibility Wind Dir Wind Speed Gust Speed Precip Events Conditions
12:56 AM 47.3 °F - 42.1 °F 82% 30.06 in 10.0 mi ESE 5.8 mph - N/A   Clear
1:56 AM 46.2 °F 42.2 °F 41.7 °F 84% 30.02 in 10.0 mi East 8.1 mph - N/A   Clear
2:56 AM 47.7 °F - 42.1 °F 81% 30.03 in 10.0 mi East 4.6 mph - N/A   Overcast
3:56 AM 47.8 °F - 42.3 °F 81% 30.01 in 10.0 mi ENE 3.5 mph - N/A   Overcast
4:46 AM 48.2 °F - 42.8 °F 82% 30.00 in 10.0 mi NE 4.6 mph - N/A   Light Drizzle
4:56 AM 47.7 °F - 42.8 °F 83% 30.01 in 10.0 mi ENE 5.8 mph - 0.00 in   Light Drizzle
5:06 AM 46.4 °F 44.3 °F 42.8 °F 87% 30.01 in 10.0 mi NE 4.6 mph - N/A Rain Rain
5:41 AM 46.4 °F 44.3 °F 44.6 °F 93% 30.04 in 8.0 mi WNW 4.6 mph - N/A Rain Light Rain
5:51 AM 46.4 °F 45.2 °F 44.6 °F 93% 30.04 in 3.0 mi West 3.5 mph - N/A Rain Heavy Rain
5:56 AM 46.2 °F 45.0 °F 44.1 °F 92% 30.05 in 2.5 mi West 3.5 mph - 0.21 in Rain Heavy Rain
6:06 AM 46.4 °F 45.2 °F 44.6 °F 93% 30.04 in 2.8 mi NW 3.5 mph - N/A Rain Heavy Rain
6:11 AM 46.4 °F - 44.6 °F 93% 30.04 in 2.5 mi Calm Calm - N/A Rain Heavy Rain
6:31 AM 46.4 °F - 44.6 °F 93% 30.04 in 2.5 mi Calm Calm - N/A Rain Heavy Rain
6:51 AM 46.4 °F 45.2 °F 44.6 °F 93% 30.04 in 3.0 mi ENE 3.5 mph - N/A Rain Rain
6:56 AM 46.0 °F 43.9 °F 44.6 °F 95% 30.04 in 4.0 mi ENE 4.6 mph - 0.28 in Rain Light Rain
7:16 AM 46.4 °F 43.5 °F 44.6 °F 93% 30.03 in 6.0 mi ENE 5.8 mph - N/A Rain Light Rain
7:31 AM 46.4 °F 43.5 °F 44.6 °F 93% 30.02 in 5.0 mi ENE 5.8 mph - N/A Rain Light Rain
7:46 AM 46.4 °F 42.4 °F 44.6 °F 93% 30.00 in 5.0 mi ENE 8.1 mph - N/A Rain Light Rain
7:51 AM 46.4 °F 42.4 °F 44.6 °F 93% 30.00 in 6.0 mi ENE 8.1 mph - N/A Rain Light Rain
7:56 AM 46.4 °F 43.5 °F 45.3 °F 96% 30.00 in 6.0 mi ENE 5.8 mph - 0.09 in Rain Light Rain
8:06 AM 46.4 °F 41.9 °F 44.6 °F 93% 29.99 in 7.0 mi ENE 9.2 mph - N/A Rain Light Rain
8:11 AM 46.4 °F 42.4 °F 44.6 °F 93% 29.99 in 7.0 mi ENE 8.1 mph - N/A Rain Light Rain
8:56 AM 46.9 °F - 45.5 °F 95% 29.99 in 6.0 mi NE 6.9 mph - 0.03 in Rain Light Rain
9:06 AM 46.4 °F 43.5 °F 46.4 °F 100% 30.00 in 10.0 mi NE 5.8 mph - N/A   Light Drizzle
9:56 AM 47.3 °F - 45.9 °F 95% 30.00 in 4.0 mi NNE 4.6 mph - 0.03 in Rain Light Rain
10:56 AM 47.8 °F - 46.4 °F 95% 29.97 in 9.0 mi ENE 10.4 mph - 0.08 in Rain Light Rain
11:11 AM 48.2 °F - 46.4 °F 93% 29.97 in 10.0 mi ENE 9.2 mph - N/A Rain Light Rain
11:16 AM 48.2 °F - 46.4 °F 93% 29.98 in 10.0 mi NE 8.1 mph - N/A Rain Light Rain
11:56 AM 48.6 °F - 46.9 °F 94% 29.99 in 7.0 mi NE 5.8 mph - 0.05 in Rain Light Rain
12:31 PM 50.0 °F - 48.2 °F 94% 29.97 in 10.0 mi ENE 6.9 mph - N/A   Light Drizzle
12:54 PM 50.0 °F - 48.2 °F 94% 29.94 in 10.0 mi ENE 5.8 mph - N/A   Overcast
12:56 PM 49.8 °F - 47.7 °F 92% 29.94 in 10.0 mi ENE 5.8 mph - 0.02 in   Overcast
1:06 PM 50.0 °F - 48.2 °F 94% 29.94 in 10.0 mi North 4.6 mph - N/A   Overcast
1:16 PM 50.0 °F - 48.2 °F 94% 29.94 in 10.0 mi North 4.6 mph - N/A   Overcast
1:56 PM 50.4 °F - 47.8 °F 91% 29.94 in 10.0 mi NNE 4.6 mph - N/A   Overcast
2:56 PM 51.6 °F - 48.7 °F 90% 29.91 in 10.0 mi NNE 4.6 mph - N/A   Overcast
3:36 PM 51.8 °F - 48.2 °F 88% 29.89 in 10.0 mi North 9.2 mph - N/A   Overcast
3:41 PM 51.8 °F - 48.2 °F 88% 29.89 in 10.0 mi North 6.9 mph - N/A   Overcast
3:46 PM 51.8 °F - 48.2 °F 88% 29.89 in 10.0 mi North 6.9 mph - N/A   Overcast
3:56 PM 51.6 °F - 49.1 °F 91% 29.88 in 10.0 mi North 5.8 mph - N/A   Overcast
5:41 PM 50.0 °F - 48.2 °F 94% 29.88 in 10.0 mi NNE 6.9 mph - N/A   Overcast
5:56 PM 50.0 °F - 48.0 °F 93% 29.88 in 10.0 mi NNE 5.8 mph - N/A   Overcast
6:06 PM 50.0 °F - 48.2 °F 94% 29.88 in 10.0 mi North 8.1 mph - N/A   Overcast
6:56 PM 48.9 °F - 47.5 °F 95% 29.88 in 4.0 mi NNE 6.9 mph - N/A   Overcast
7:36 PM 48.2 °F - 46.4 °F 93% 29.87 in 2.8 mi NNE 6.9 mph - N/A   Overcast
7:41 PM 48.2 °F - 46.4 °F 93% 29.87 in 3.0 mi NNE 9.2 mph - N/A   Overcast
7:51 PM 48.2 °F - 46.4 °F 93% 29.87 in 4.0 mi NNE 8.1 mph - N/A   Light Drizzle
7:56 PM 48.0 °F - 46.9 °F 96% 29.87 in 4.0 mi NNE 6.9 mph - 0.00 in   Light Drizzle
8:02 PM 48.2 °F - 46.4 °F 93% 29.87 in 6.0 mi NNE 5.8 mph - N/A   Overcast
8:22 PM 48.2 °F - 46.4 °F 93% 29.88 in 8.0 mi NE 5.8 mph - N/A   Overcast
8:56 PM 47.8 °F - 46.8 °F 96% 29.88 in 8.0 mi NE 6.9 mph - 0.00 in   Overcast
9:36 PM 48.2 °F - 46.4 °F 93% 29.90 in 10.0 mi NNE 6.9 mph - N/A   Overcast
9:51 PM 46.4 °F 44.3 °F 46.4 °F 100% 29.90 in 10.0 mi NNE 4.6 mph - N/A   Overcast
9:56 PM 47.1 °F - 45.7 °F 95% 29.90 in 10.0 mi NNE 5.8 mph - N/A   Overcast
10:56 PM 47.3 °F - 45.9 °F 95% 29.91 in 10.0 mi NNE 4.6 mph - N/A   Overcast
11:06 PM 48.2 °F - 46.4 °F 93% 29.91 in 10.0 mi NNE 4.6 mph - N/A   Overcast
11:51 PM 46.4 °F 44.3 °F 46.4 °F 100% 29.90 in 5.0 mi NE 4.6 mph - N/A   Overcast
11:56 PM 46.9 °F - 45.5 °F 95% 29.90 in 5.0 mi NNE 3.5 mph - N/A   Overcast